Location: Northam
(31.6525°S, 116.6655°E)
Time: 15:05:42
(UTC+08:00)

Envisat - Pass Details

Date: 22 May 2021
Orbit: 764 x 766 km, 98.1° (Epoch: 18 June)

Event Time Altitude Azimuth Distance (km) Brightness Sun altitude
Rises 03:46:13 0° 55° (NE) 3,225 6.8 -40.6°
Reaches altitude 10° 03:49:17 10° 74° (ENE) 2,308 6.1 -40.0°
Maximum altitude 03:52:26 17° 113° (ESE) 1,892 5.5 -39.3°
Enters shadow 03:53:33 16° 129° (SE) 1,954 5.5 -39.1°
